Location: CNYAC Observatory
(43.2150°N, 74.9500°W)
Time: 19:53:14
(UTC-04:00)

Daily predictions for brighter satellites

Satellite Brightness Start Highest point End
(mag) Time Altitude Azimuth Time Altitude Azimuth Time Altitude Azimuth
Cosmos 2123 Rocket 4.4 19:36:10 10° N 19:42:08 42° ENE 19:48:01 10° SE
Helios 1B rocket 4.1 19:42:34 10° ENE 19:44:54 15° E 19:47:12 10° SE
Cosmos 1833 Rocket 4.1 19:46:45 10° N 19:50:51 20° NE 19:54:57 10° E
Helios 1A 4.2 19:48:34 10° ESE 19:51:50 23° ENE 19:55:07 10° NNE
Cosmos 1378 3.1 19:49:36 10° N 19:53:23 69° E 19:57:06 10° SSE
Cosmos 2278 Rocket 2.6 19:48:36 10° S 19:53:50 39° ESE 19:59:04 10° NE
Lacrosse 4 Rocket 1.3 19:50:25 10° SSW 19:54:28 88° WNW 19:58:32 10° NNE
FengYun 1-2 T 4.2 19:54:21 10° SSE 19:59:55 77° ENE 20:05:33 10° N
FENGYUN 3A 3.7 19:54:36 10° SSE 20:00:00 83° ENE 20:05:26 10° NNW
Lacrosse 5 2.1 19:55:38 10° SSW 20:00:29 47° SE 20:05:21 10° ENE
CZ-3B DEB 3.0 19:48:33 10° SW 20:00:48 77° SE 20:06:13 10° NE
Cosmos 1758 4.4 20:00:32 10° SE 20:03:40 23° E 20:06:50 10° NE
HJ-1C 3.4 20:00:58 10° SSE 20:04:22 90° N 20:07:48 10° NNW
Cosmos 1937 Rocket 3.5 20:04:06 10° SSW 20:09:20 89° WNW 20:14:41 10° NNE
Cosmos 1818 4.2 20:05:27 10° NNW 20:10:35 40° NE 20:14:47 14° ESE
H-2A R/B 2.7 20:07:25 10° SSE 20:11:17 75° ENE 20:15:14 10° N
SL-27 R/B 2.4 20:08:29 10° NNW 20:12:04 80° ENE 20:15:41 10° SSE
Meteor 1-24 Rocket 3.7 20:06:59 10° N 20:12:29 89° E 20:18:09 10° S
Cosmos 1953 3.3 20:09:45 10° SSE 20:13:13 27° E 20:16:40 10° NNE
Resurs 1-3 3.6 20:09:18 10° SSE 20:13:38 67° ENE 20:18:01 10° N
Cosmos 1939 Rocket 4.4 20:12:14 15° E 20:14:09 20° ENE 20:17:14 10° NNE
Cosmos 1707 4.4 20:11:54 10° NNW 20:15:32 37° W 20:19:07 10° SSW
SeaSat 1 3.1 20:10:49 10° SSE 20:15:39 57° WSW 20:20:32 10° NW
Meteor 1-4 Rocket 3.5 20:13:17 10° SSE 20:16:11 25° E 20:19:05 10° NE
Meteor 1-29 4.1 20:14:56 10° NE 20:17:44 22° E 20:19:51 14° SE
COSMOS 2487 4.0 20:16:38 10° NNE 20:19:18 19° ENE 20:20:12 18° E
Cosmos 1544 3.5 20:16:41 10° SSE 20:20:06 39° E 20:23:32 10° NNE
Cosmos 2082 Rocket 2.9 20:17:23 10° N 20:22:37 36° NE 20:26:10 18° ESE
Cosmos 1408 Rocket 4.3 20:27:03 10° N 20:31:08 34° ENE 20:33:14 22° ESE
Cosmos 2098 Rocket 4.5 20:25:02 10° SSE 20:31:56 56° E 20:39:19 10° NNE
Lacrosse 5 rocket 3.0 20:30:27 10° NNW 20:33:30 20° NNE 20:35:09 16° ENE
Cosmos 1766 3.7 20:30:06 10° SSW 20:33:56 63° W 20:37:49 10° N
Cosmos 1934 Rocket 4.3 20:29:41 10° SSW 20:35:49 71° W 20:41:54 10° N
Okean 3 Rocket 3.5 20:33:57 10° N 20:38:22 89° E 20:42:46 10° S
Cosmos 1271 Rocket 4.1 20:39:43 23° ENE 20:39:43 23° ENE 20:42:08 10° NE
Tiangong 1 2.3 20:36:43 10° W 20:39:19 28° SSW 20:40:10 24° S
RESURS DK-1 3.2 20:37:35 10° NW 20:41:36 50° WSW 20:45:34 10° S
Abrixas 2.2 20:43:46 10° WNW 20:46:37 70° NNE 20:46:54 63° ENE
Cosmos 1867 3.9 20:41:46 10° S 20:46:51 42° ESE 20:51:59 10° NE
SJ-11-01 4.4 20:45:42 25° SE 20:48:17 53° ENE 20:52:53 10° N
USA 186 1.7 20:50:05 46° SW 20:50:21 49° W 20:52:33 10° NNW
Cosmos 372 Rocket 4.1 20:48:54 10° S 20:53:47 47° ESE 20:58:42 10° NNE
Timation 1 Rocket 4.2 20:48:09 10° SSW 20:54:06 69° ESE 21:00:06 10° NNE
Meteor 1-21 Rocket 4.2 20:49:56 10° N 20:55:46 79° E 21:00:51 14° SSE
USA 215 3.2 20:52:40 10° NE 20:59:07 60° SE 21:05:33 10° SW
GP-B 3.0 20:58:25 14° S 21:02:11 86° E 21:06:39 10° N
Cosmos 1674 2.5 20:58:35 10° N 21:02:21 70° E 21:02:55 58° SE
Cosmos 2016 Rocket 4.4 21:01:04 32° ESE 21:02:37 37° E 21:08:13 10° NNE
Cosmos 2344 4.1 20:56:01 10° SW 21:03:38 65° NW 21:12:29 10° NE
Resurs 01 Rocket 3.5 21:00:55 10° SSW 21:04:47 30° W 21:08:41 10° NW
Cosmos 158 Rocket 3.9 20:59:57 10° NNW 21:05:03 67° ENE 21:06:52 39° SE
Cosmos 1805 4.2 21:05:22 10° SSW 21:09:08 47° WNW 21:12:56 10° N
Cosmos 1076 Rocket 3.8 21:05:29 10° NNW 21:09:42 64° W 21:12:26 21° S
H-2A R/B 3.7 21:14:41 19° NE 21:14:41 19° NE 21:17:42 10° NNE
Cosmos 1766 Rocket 3.6 21:09:45 10° N 21:14:14 82° W 21:16:04 36° S
Cosmos 2100 Rocket 3.9 21:09:20 10° S 21:15:36 72° E 21:21:58 10° NNE
Envisat 3.1 21:17:16 25° S 21:20:16 72° WSW 21:25:22 10° NNW
Helios 1B rocket 3.4 21:16:29 10° N 21:20:29 48° WNW 21:24:26 10° SW
YAOGAN 6 3.5 21:22:58 41° NNE 21:22:58 41° NNE 21:25:35 10° N
Cosmos 1340 Rocket 2.9 21:18:30 10° N 21:22:08 66° NNE 21:22:08 66° NNE
Cosmos 1470 2.7 21:23:17 77° NNE 21:23:17 77° NNE 21:27:01 10° N
CZ-4B DEB 4.1 21:22:45 34° WSW 21:23:02 35° W 21:25:56 10° NNW
Cosmos 1125 Rocket 3.9 21:23:14 10° SSW 21:28:23 64° WNW 21:33:35 10° NNE
Cosmos 1048 Rocket 4.3 21:26:32 10° NNW 21:31:36 59° WSW 21:33:23 37° SSW
USA 267 3.7 21:30:04 37° ENE 21:32:12 49° NNE 21:38:27 10° NW
Cosmos 1802 Rocket 3.8 21:31:04 30° S 21:34:16 79° E 21:40:27 10° N
Cosmos-2242 3.3 21:33:21 45° SW 21:34:29 65° W 21:38:44 10° N
Cosmos 1833 Rocket 2.8 21:29:46 10° NNW 21:35:23 72° WSW 21:36:55 48° S
NOAA 11 4.2 21:36:48 58° ENE 21:36:48 58° ENE 21:42:12 10° N
Cosmos 2278 Rocket 3.9 21:32:52 10° WSW 21:37:57 33° NW 21:43:05 10° N
Cosmos 1733 4.2 21:43:27 46° NW 21:43:27 46° NW 21:46:33 10° N
Lacrosse 5 3.2 21:38:50 10° W 21:43:34 38° NNW 21:47:18 15° NNE
ERS-1 Rocket 3.0 21:43:28 69° SSW 21:44:00 78° WSW 21:49:04 10° NNW
Cosmos 2061 Rocket 4.0 21:38:33 14° S 21:44:07 82° W 21:50:36 10° N
MetOp-B 4.1 21:45:45 70° NE 21:45:45 70° NE 21:50:53 10° N
Cosmos 1743 Rocket 3.9 21:41:39 10° N 21:45:27 63° NNW 21:45:27 63° NNW
SPOT 5 3.3 21:47:10 58° NE 21:47:10 58° NE 21:51:53 10° N
H-2A R/B 4.4 21:50:04 13° NNE 21:50:04 13° NNE 21:50:38 10° NNE
Timation 2 Rocket 4.1 21:42:03 10° NNW 21:48:20 66° WSW 21:49:54 48° S
Cosmos 1500 Rocket 4.5 21:44:16 10° N 21:47:10 41° N 21:47:10 41° N
Cosmos 1939 Rocket 4.3 21:48:08 33° WSW 21:48:50 36° W 21:52:41 10° NNW
Cosmos 2297 4.4 21:45:39 10° SW 21:51:12 53° WNW 21:56:51 10° NNE
Meteor 1-11 4.2 21:46:33 10° N 21:51:35 64° NE 21:51:35 64° NE
SPOT 1/Viking Rocket 4.4 21:58:41 40° NNE 21:58:41 40° NNE 22:02:20 10° N
ATLAS 5 CENTAUR R/B 4.2 21:53:05 10° SW 22:05:01 - NE 21:53:19 11° SW
Cosmos 2251 Rocket 3.8 21:54:55 10° NNW 21:59:22 61° N 21:59:22 61° N
Cosmos 2082 Rocket 3.4 22:01:32 10° NW 22:06:40 36° WSW 22:08:03 31° SW
Meteor 1-16 Rocket 4.4 22:11:54 75° WNW 22:11:54 75° WNW 22:17:44 10° N
Lacrosse 5 rocket 3.5 22:09:17 10° NW 22:10:52 23° NW 22:10:52 23° NW
CZ-3B DEB 3.6 22:06:53 10° W 22:13:25 29° NNW 22:15:02 23° N
Terra 3.9 22:17:20 18° NNE 22:17:20 18° NNE 22:18:50 10° N
ARGOS 3.9 22:29:20 49° NW 22:29:20 49° NW 22:33:23 10° NNW
USA 215 4.0 22:35:47 10° NE 22:42:02 49° NNW 22:48:15 10° W
H-2A R/B 3.6 22:55:19 33° NNW 22:55:19 33° NNW 22:58:16 10° NNW
USA 267 4.2 23:17:25 40° WNW 23:17:25 40° WNW 23:21:35 10° NW
Lacrosse 5 4.5 23:24:21 10° NW 23:26:34 17° NNW 23:26:34 17° NNW
